Sea Breeze — JD4225 — position and weather

sailwx.info

Track history (hours):
 
Tides and Currents Weather Stations Pressure Air Temp Water Temp Dewpoint Dewpoint Depression Visibility Wind Speed Wind Dir Waves Ship Positions

Sea Breeze

Last reported at 2018-Jan-21 23:21 UTC. Time now 2018-Jan-22 00:18 UTC.
Position N 35°24' E 139°38'.

Length 35 m; draft 3.1 m.

Type: Tug. MMSI: 431009818.

Date/timePositionNaut miles runAvg speedWind from/ knotsBaromVisibWave heightAir tempDewpointWater temp
2018-Jan-21 23:21N 35°24' E 139°38'1 3.2
2018-Jan-21 23:01N 35°25' E 139°39'1 0.5
2018-Jan-21 21:29N 35°25' E 139°38'0 0.0
2018-Jan-21 21:00N 35°25' E 139°38'0 0.0
2018-Jan-21 07:48N 35°25' E 139°38'0 0.3
2018-Jan-21 07:30N 35°25' E 139°38'0 0.1
2018-Jan-21 07:00N 35°25' E 139°38'0 0.6
2018-Jan-21 06:30N 35°25' E 139°39'0 0.3
2018-Jan-21 06:00N 35°25' E 139°39'1 0.1
2018-Jan-21 01:01N 35°25' E 139°38'0 0.4
2018-Jan-21 01:00N 35°25' E 139°38'0 0.0
2018-Jan-20 21:31N 35°25' E 139°38'0 0.0
2018-Jan-20 21:31N 35°25' E 139°38'0 0.0
2018-Jan-20 21:00N 35°25' E 139°38'0 0.0
2018-Jan-20 06:58N 35°25' E 139°38'0 0.1
2018-Jan-20 02:11N 35°24' E 139°38'1 4.4
2018-Jan-20 02:00N 35°25' E 139°39'0 0.1
2018-Jan-20 01:30N 35°25' E 139°39'0 1.0
2018-Jan-20 01:01N 35°24' E 139°39'2 4.4
2018-Jan-20 00:30N 35°23' E 139°41'0 0.7
2018-Jan-20 00:01N 35°22' E 139°41'2 4.1
2018-Jan-19 23:31N 35°24' E 139°40'1 0.7
2018-Jan-19 21:28N 35°25' E 139°38'0 0.0
2018-Jan-19 21:00N 35°25' E 139°38'0 0.0
2018-Jan-19 07:45N 35°25' E 139°38'0 0.4
2018-Jan-19 07:30N 35°25' E 139°38'0 0.1
2018-Jan-19 07:00N 35°25' E 139°39'0 0.3
2018-Jan-19 06:31N 35°25' E 139°39'0 0.4
2018-Jan-19 06:01N 35°25' E 139°39'0 0.2
2018-Jan-19 05:30N 35°25' E 139°39'1 0.1
2018-Jan-18 23:16N 35°24' E 139°38'1 5.7
2018-Jan-18 23:00N 35°24' E 139°40'1 0.8
2018-Jan-18 21:29N 35°25' E 139°38'0 0.0
2018-Jan-18 21:00N 35°25' E 139°38'0 0.0
2018-Jan-18 06:58N 35°25' E 139°38'0 0.1
2018-Jan-18 01:50N 35°24' E 139°38'1 2.5
2018-Jan-18 01:30N 35°25' E 139°39'0 0.0
2018-Jan-18 01:01N 35°25' E 139°39'2 1.9
2018-Jan-18 00:00N 35°23' E 139°41'0 6.3
2018-Jan-17 23:58N 35°23' E 139°41'  
2018-Jan-12 04:42N 35°25' E 139°38'1 3.0
2018-Jan-12 04:30N 35°24' E 139°39'0 0.6
2018-Jan-12 04:00N 35°24' E 139°39'1 0.5
2018-Jan-12 02:04N 35°24' E 139°38'0 2.6
2018-Jan-12 02:00N 35°24' E 139°38'1 1.3
2018-Jan-12 01:31N 35°25' E 139°39'0 0.0
2018-Jan-12 01:01N 35°25' E 139°39'1 1.6
2018-Jan-12 00:30N 35°24' E 139°40'2 3.3
2018-Jan-12 00:00N 35°23' E 139°41'2 3.0
2018-Jan-11 23:31N 35°24' E 139°40'  
Track history (hours):
 
Tides and Currents Weather Stations Pressure Air Temp Water Temp Dewpoint Dewpoint Depression Visibility Wind Speed Wind Dir Waves Ship Positions

Sea Breeze

Last reported at 2018-Jan-21 23:21 UTC. Time now 2018-Jan-22 00:18 UTC.
Position N 35°24' E 139°38'.

Length 35 m; draft 3.1 m.

Type: Tug. MMSI: 431009818.

Date/timePositionNaut miles runAvg speedWind from/ knotsBaromVisibWave heightAir tempDewpointWater temp
2018-Jan-21 23:21N 35°24' E 139°38'1 3.2
2018-Jan-21 23:01N 35°25' E 139°39'1 0.5
2018-Jan-21 21:29N 35°25' E 139°38'0 0.0
2018-Jan-21 21:00N 35°25' E 139°38'0 0.0
2018-Jan-21 07:48N 35°25' E 139°38'0 0.3
2018-Jan-21 07:30N 35°25' E 139°38'0 0.1
2018-Jan-21 07:00N 35°25' E 139°38'0 0.6
2018-Jan-21 06:30N 35°25' E 139°39'0 0.3
2018-Jan-21 06:00N 35°25' E 139°39'1 0.1
2018-Jan-21 01:01N 35°25' E 139°38'0 0.4
2018-Jan-21 01:00N 35°25' E 139°38'0 0.0
2018-Jan-20 21:31N 35°25' E 139°38'0 0.0
2018-Jan-20 21:31N 35°25' E 139°38'0 0.0
2018-Jan-20 21:00N 35°25' E 139°38'0 0.0
2018-Jan-20 06:58N 35°25' E 139°38'0 0.1
2018-Jan-20 02:11N 35°24' E 139°38'1 4.4
2018-Jan-20 02:00N 35°25' E 139°39'0 0.1
2018-Jan-20 01:30N 35°25' E 139°39'0 1.0
2018-Jan-20 01:01N 35°24' E 139°39'2 4.4
2018-Jan-20 00:30N 35°23' E 139°41'0 0.7
2018-Jan-20 00:01N 35°22' E 139°41'2 4.1
2018-Jan-19 23:31N 35°24' E 139°40'1 0.7
2018-Jan-19 21:28N 35°25' E 139°38'0 0.0
2018-Jan-19 21:00N 35°25' E 139°38'0 0.0
2018-Jan-19 07:45N 35°25' E 139°38'0 0.4
2018-Jan-19 07:30N 35°25' E 139°38'0 0.1
2018-Jan-19 07:00N 35°25' E 139°39'0 0.3
2018-Jan-19 06:31N 35°25' E 139°39'0 0.4
2018-Jan-19 06:01N 35°25' E 139°39'0 0.2
2018-Jan-19 05:30N 35°25' E 139°39'1 0.1
2018-Jan-18 23:16N 35°24' E 139°38'1 5.7
2018-Jan-18 23:00N 35°24' E 139°40'1 0.8
2018-Jan-18 21:29N 35°25' E 139°38'0 0.0
2018-Jan-18 21:00N 35°25' E 139°38'0 0.0
2018-Jan-18 06:58N 35°25' E 139°38'0 0.1
2018-Jan-18 01:50N 35°24' E 139°38'1 2.5
2018-Jan-18 01:30N 35°25' E 139°39'0 0.0
2018-Jan-18 01:01N 35°25' E 139°39'2 1.9
2018-Jan-18 00:00N 35°23' E 139°41'0 6.3
2018-Jan-17 23:58N 35°23' E 139°41'  
2018-Jan-12 04:42N 35°25' E 139°38'1 3.0
2018-Jan-12 04:30N 35°24' E 139°39'0 0.6
2018-Jan-12 04:00N 35°24' E 139°39'1 0.5
2018-Jan-12 02:04N 35°24' E 139°38'0 2.6
2018-Jan-12 02:00N 35°24' E 139°38'1 1.3
2018-Jan-12 01:31N 35°25' E 139°39'0 0.0
2018-Jan-12 01:01N 35°25' E 139°39'1 1.6
2018-Jan-12 00:30N 35°24' E 139°40'2 3.3
2018-Jan-12 00:00N 35°23' E 139°41'2 3.0
2018-Jan-11 23:31N 35°24' E 139°40'  

Dump ship's entire track history